RYR2GA LEIB-LEAL

Flight info

Callsign RYR2GA
Flight time N/A
Altitude 17000
Route BAVER M603 GERVU
Aircraft B738/M-SDE2E3FGHIRWXY/LB1

Departure

Time 2026-04-30 22:38
Airport Ibiza Airport (LEIB)

Arrival

Time N/A
Airport Alicante-Elche Miguel Hernández Airport (LEAL)
Time Latitude Longitude Altitude Speed Heading
2026-04-30 22:03 38.87630 1.37060 26 ft 0 kts 333°
2026-04-30 22:30 38.87579 1.37117 28 ft 4 kts 277°
2026-04-30 22:31 38.87580 1.37135 32 ft 0 kts 243°
2026-04-30 22:33 38.87507 1.36955 29 ft 15 kts 241°
2026-04-30 22:33 38.87413 1.36790 30 ft 14 kts 188°
2026-04-30 22:34 38.87220 1.36701 27 ft 13 kts 242°
2026-04-30 22:35 38.87118 1.36457 27 ft 20 kts 242°
2026-04-30 22:36 38.86827 1.35821 26 ft 7 kts 167°
2026-04-30 22:36 38.86785 1.35848 26 ft 7 kts 150°
2026-04-30 22:37 38.86731 1.35974 26 ft 6 kts 55°
2026-04-30 22:37 38.86750 1.36025 26 ft 6 kts 65°
2026-04-30 22:37 38.87116 1.36901 28 ft 136 kts 61°
2026-04-30 22:38 38.88206 1.39509 1537 ft 176 kts 62°
2026-04-30 22:38 38.89161 1.42280 3425 ft 183 kts 83°
2026-04-30 22:39 38.89028 1.44051 3731 ft 214 kts 105°
2026-04-30 22:39 38.85637 1.48473 5222 ft 261 kts 161°
2026-04-30 22:40 38.80467 1.46365 7617 ft 280 kts 234°
2026-04-30 22:41 38.79863 1.39209 10514 ft 282 kts 277°
2026-04-30 22:41 38.80527 1.33815 11178 ft 326 kts 277°
2026-04-30 22:42 38.81898 1.22369 14998 ft 319 kts 276°
2026-04-30 22:43 38.82543 1.16722 16554 ft 324 kts 276°
2026-04-30 22:43 38.83190 1.11005 17093 ft 322 kts 276°
2026-04-30 22:44 38.83826 1.05337 17123 ft 323 kts 276°
2026-04-30 22:45 38.85106 0.93852 17124 ft 326 kts 276°
2026-04-30 22:45 38.85742 0.88116 17121 ft 325 kts 276°
2026-04-30 22:46 38.86374 0.82375 17122 ft 324 kts 276°
2026-04-30 22:47 38.87619 0.70988 17120 ft 322 kts 275°
2026-04-30 22:47 38.87290 0.65323 17125 ft 318 kts 254°
2026-04-30 22:48 38.85713 0.60026 17122 ft 318 kts 247°
2026-04-30 22:49 38.83206 0.52153 17120 ft 314 kts 247°
2026-04-30 22:49 38.80490 0.44881 17134 ft 299 kts 237°
2026-04-30 22:50 38.75938 0.35899 16238 ft 298 kts 237°
2026-04-30 22:51 38.73716 0.31450 15607 ft 293 kts 237°
2026-04-30 22:51 38.71549 0.27086 14980 ft 290 kts 237°
2026-04-30 22:52 38.70468 0.24905 14667 ft 288 kts 238°
2026-04-30 22:52 38.68340 0.20611 14051 ft 285 kts 238°
2026-04-30 22:53 38.66222 0.16339 13380 ft 282 kts 237°
2026-04-30 22:53 38.64130 0.12123 12741 ft 278 kts 237°
2026-04-30 22:53 38.63108 0.10066 12444 ft 276 kts 237°
2026-04-30 22:54 38.61057 0.05941 11834 ft 273 kts 237°
2026-04-30 22:55 38.58019 -0.00161 10930 ft 269 kts 237°
2026-04-30 22:55 38.56028 -0.04154 10351 ft 266 kts 237°
2026-04-30 22:56 38.54082 -0.08051 9957 ft 257 kts 237°
2026-04-30 22:56 38.51197 -0.13822 9078 ft 255 kts 237°
2026-04-30 22:57 38.49316 -0.17582 8693 ft 246 kts 237°
2026-04-30 22:57 38.47519 -0.21163 8468 ft 231 kts 237°
2026-04-30 22:58 38.45582 -0.24254 8070 ft 224 kts 211°
2026-04-30 22:59 38.41051 -0.24107 7390 ft 230 kts 158°
2026-04-30 22:59 38.36554 -0.21990 6636 ft 230 kts 165°